sat.trackr.live / text

‹ back to catalog

STARLINK-37758

NORAD 69219 · 2026-115J

PAYLOAD ACTIVE UNKNOWN

§ Identity

Operator
Country
US
Launch date
2026-05-26
Launch site
AFWTR
Launch vehicle
Mass (kg)
RCS (m²)

Purposes: comms

External: N2YO · Heavens-Above · Gunter

§ Orbital elements

Epoch: 2026-09-20T00:07:05.582208Z

Period
93.91 min
Inclination
97.2839°
Eccentricity
0.0001583
Mean motion
15.33451146 rev/d
Perigee alt
464.4 km
Apogee alt
466.6 km
Semi-major
6,843.7 km
B*
5.3352e-4
RAAN
279.0934°
Arg perigee
93.8946°
Mean anomaly
266.2477°
Rev number
1,921

§ Raw data

STARLINK-377581 69219U 26115J   26263.00492572  .00017192  00000+0  53352-3 0  99902 69219  97.2839 279.0934 0001583  93.8946 266.2477 15.33451146 19217

JSON: /api/v1/satellites/69219 · /tle

For live sub-satellite position, see the globe view (requires WebGL).

§ Visibility from observer

Set your observer location to see the next 7 days of passes ≥ 10°. The values pass through the URL so the page stays shareable.

No JS? Fill the form by hand. The geolocation button needs JavaScript.